This demonstration page uses our WeatherBlox Daily Observations layout. Learn more.

Left ArrowRight Arrow

34.16533, -84.80231

Hourly Observations for September 10, 2017

Temp ( °F °C ) Dew Point ( °F °C ) Humidity (%) Winds ( mph kmh ) Pressure ( in mb ) Visibility ( mi km ) Precip ( " mm )
12:53 am 00:53 Clear 63 17.2 56 13.3 78 78 Calm 30.17 1022 10 16 0.00 0.00
1:53 am 01:53 Clear 63 17.2 55 12.8 76 76 NE 5 7 30.16 1022 10 16 0.00 0.00
2:53 am 02:53 Clear 63 17.2 54 12.2 73 73 Calm 30.16 1021 10 16 0.00 0.00
3:53 am 03:53 Clear 62 16.7 53 11.7 73 73 VRB 6 9 30.16 1021 10 16 0.00 0.00
4:53 am 04:53 Clear 62 16.7 53 11.7 73 73 ENE 5 7 30.16 1022 10 16 0.00 0.00
5:53 am 05:53 Clear 61 16.1 53 11.7 75 75 ENE 6 9 30.18 1022 10 16 0.00 0.00
6:53 am 06:53 Clear 61 16.1 53 11.7 75 75 E 6 9 30.19 1022 10 16 0.00 0.00
7:53 am 07:53 Sunny 61 16.1 52 11.1 72 72 VRB 6 9 30.22 1023 10 16 0.00 0.00
8:53 am 08:53 Sunny 63 17.2 52 11.1 68 68 VRB 5 7 30.23 1024 10 16 0.00 0.00
9:53 am 09:53 Sunny 66 18.9 51 10.6 59 59 E 10 17 30.23 1024 10 16 0.00 0.00
10:53 am 10:53 Sunny 68 20 49 9.4 51 51 ESE 14 22 30.24 1024 10 16 0.00 0.00
11:53 am 11:53 Sunny 71 21.7 49 9.4 46 46 ENE 13 20 30.24 1024 10 16 0.00 0.00
12:53 pm 12:53 Sunny 72 22.2 49 9.4 44 44 NE 14 22 30.22 1023 10 16 0.00 0.00
1:53 pm 13:53 Sunny 71 21.7 49 9.4 46 46 ENE 10 17 30.21 1023 10 16 0.00 0.00
2:53 pm 14:53 Sunny 71 21.7 49 9.4 46 46 E 8 13 30.20 1023 10 16 0.00 0.00
3:53 pm 15:53 Sunny 71 21.7 51 10.6 49 49 VRB 7 11 30.19 1022 10 16 0.00 0.00
4:53 pm 16:53 Sunny 70 21.1 50 10 49 49 ENE 8 13 30.18 1022 10 16 0.00 0.00
5:53 pm 17:53 Sunny 67 19.4 47 8.3 49 49 NE 6 9 30.18 1022 10 16 0.00 0.00
6:53 pm 18:53 Sunny 66 18.9 48 8.9 52 52 NE 7 11 30.18 1022 10 16 0.00 0.00
7:53 pm 19:53 Sunny 65 18.3 48 8.9 54 54 VRB 6 9 30.17 1022 10 16 0.00 0.00
8:53 pm 20:53 Clear 63 17.2 50 10 63 63 NE 5 7 30.15 1021 10 16 0.00 0.00
9:53 pm 21:53 Clear 63 17.2 50 10 63 63 ENE 6 9 30.16 1021 10 16 0.00 0.00
10:53 pm 22:53 Clear 64 17.8 48 8.9 56 56 ENE 9 15 30.14 1021 10 16 0.00 0.00
11:53 pm 23:53 Clear 64 17.8 49 9.4 58 58 ENE 7 11 30.13 1020 10 16 0.00 0.00

Powered by AerisWeather